This is the latest recevied weather packets stored in our database for station/object EA5CLU-13. If no packets are shown the sender has not sent any weather packets the latest 10 day(s).
| Time | Temp. | Humidity | Pressure | Rain* | Wind** | Luminosity | Snow |
|---|---|---|---|---|---|---|---|
| 1787758442 | 29.44° C | - | 1011.8 hPa | 0 mm | - | - | - |
| 1787758142 | 28.89° C | - | 1011.8 hPa | 0 mm | - | - | - |
| 1787757842 | 28.89° C | - | 1012 hPa | 0 mm | - | - | - |
| 1787757542 | 28.89° C | - | 1011.9 hPa | 0 mm | - | - | - |
| 1787757244 | 28.33° C | - | 1011.9 hPa | 0 mm | - | - | - |
| 1787756942 | 28.33° C | - | 1012.1 hPa | 0 mm | - | - | - |
| 1787756642 | 28.33° C | - | 1012 hPa | 0 mm | - | - | - |
| 1787756342 | 28.33° C | - | 1011.9 hPa | 0 mm | - | - | - |
| 1787755741 | 27.78° C | - | 1012.4 hPa | 0 mm | - | - | - |
| 1787755442 | 27.78° C | - | 1012.2 hPa | 0 mm | - | - | - |
| 1787755143 | 28.33° C | - | 1012.2 hPa | 0 mm | - | - | - |
| 1787754842 | 28.33° C | - | 1012.4 hPa | 0 mm | - | - | - |
| 1787754243 | 28.33° C | - | 1012.4 hPa | 0 mm | - | - | - |
| 1787753942 | 28.33° C | - | 1012.5 hPa | 0 mm | - | - | - |
| 1787753642 | 28.33° C | - | 1012.4 hPa | 0 mm | - | - | - |
| 1787753341 | 28.33° C | - | 1012.7 hPa | 0 mm | - | - | - |
| 1787753042 | 28.33° C | - | 1013 hPa | 0 mm | - | - | - |
| 1787752743 | 28.33° C | - | 1013.1 hPa | 0 mm | - | - | - |
| 1787752443 | 28.33° C | - | 1013.1 hPa | 0 mm | - | - | - |
| 1787752143 | 28.33° C | - | 1013.2 hPa | 0 mm | - | - | - |
| 1787751842 | 27.78° C | - | 1013.2 hPa | 0 mm | - | - | - |
| 1787751241 | 27.78° C | - | 1013.5 hPa | 0 mm | - | - | - |
| 1787750941 | 27.22° C | - | 1013.5 hPa | 0 mm | - | - | - |
| 1787750643 | 27.78° C | - | 1013.7 hPa | 0 mm | - | - | - |
| 1787750343 | 27.78° C | - | 1013.7 hPa | 0 mm | - | - | - |
* Rain latest hour (hover to see other rain measurements)
** Current wind speed in m/s (hover to see current wind gust speed)